Volver al catálogo

STARLINK-4730

ActivoComunicacionesVLEO
NORAD 53794·PAYLOAD·🇺🇸 United States

Lanzado Sep 11, 2022 desde Cape Canaveral Space Force Station

Loading…

Próximos Pases (próximas 24 horas)

TLE

ActualizadoSource: CelesTrak SupGP

Época: Sep 14, 2026, 21:29 UTC

1 53794C 22111X   26257.89562500 -.00018330  00000+0 -58956-3 0  2571
2 53794  53.1580 132.1656 0001422  83.9568 155.9323 15.31704195    19

Sigue STARLINK-4730 en tiempo real con AllMySat

Download on the App Store